Time,TemperatureF,DewpointF,PressureIn,WindDirection,WindDirectionDegrees,WindSpeedMPH,WindSpeedGustMPH,Humidity,HourlyPrecipIn,Conditions,Clouds,dailyrainin,SoftwareType,DateUTC
2013-11-13 00:00:00,25.0,15.6,30.10,WNW,292,5.0,18.0,67,0.00,,,0.00,Weather View 32 v70,2013-11-13 05:00:00,
2013-11-13 00:05:00,25.0,15.2,30.10,West,270,3.0,18.0,66,0.00,,,0.00,Weather View 32 v70,2013-11-13 05:05:00,
2013-11-13 00:10:00,25.0,15.2,30.10,SSW,202,4.0,18.0,66,0.00,,,0.00,Weather View 32 v70,2013-11-13 05:10:00,
2013-11-13 00:15:00,25.0,15.2,30.10,SE,135,3.0,18.0,66,0.00,,,0.00,Weather View 32 v70,2013-11-13 05:15:00,
2013-11-13 00:20:00,25.0,15.2,30.11,SSW,202,1.0,18.0,66,0.00,,,0.00,Weather View 32 v70,2013-11-13 05:20:00,
2013-11-13 00:25:00,25.0,15.6,30.10,SW,225,4.0,18.0,67,0.00,,,0.00,Weather View 32 v70,2013-11-13 05:25:00,
2013-11-13 00:30:00,25.0,15.9,30.11,South,180,1.0,18.0,68,0.00,,,0.00,Weather View 32 v70,2013-11-13 05:30:00,
2013-11-13 00:35:00,25.0,15.9,30.10,West,270,2.0,18.0,68,0.00,,,0.00,Weather View 32 v70,2013-11-13 05:35:00,
2013-11-13 00:40:00,24.0,15.0,30.10,West,270,2.0,18.0,68,0.00,,,0.00,Weather View 32 v70,2013-11-13 05:40:00,
2013-11-13 00:50:00,25.0,15.9,30.10,SSE,158,5.0,18.0,68,0.00,,,0.00,Weather View 32 v70,2013-11-13 05:50:00,
2013-11-13 00:55:00,25.0,15.9,30.10,WNW,292,6.0,18.0,68,0.00,,,0.00,Weather View 32 v70,2013-11-13 05:55:00,
2013-11-13 01:04:00,24.0,15.0,30.10,West,270,11.0,14.0,68,0.00,,,0.00,Weather View 32 v70,2013-11-13 06:04:00,
2013-11-13 01:09:00,24.0,15.0,30.10,South,180,8.0,14.0,68,0.00,,,0.00,Weather View 32 v70,2013-11-13 06:09:00,
2013-11-13 01:15:00,24.0,15.0,30.10,South,180,3.0,15.0,68,0.00,,,0.00,Weather View 32 v70,2013-11-13 06:15:00,
2013-11-13 01:20:00,24.0,15.0,30.11,WNW,292,3.0,15.0,68,0.00,,,0.00,Weather View 32 v70,2013-11-13 06:20:00,
2013-11-13 01:25:00,24.0,15.3,30.11,South,180,6.0,15.0,69,0.00,,,0.00,Weather View 32 v70,2013-11-13 06:25:00,
2013-11-13 01:30:00,24.0,15.3,30.11,SSE,158,7.0,15.0,69,0.00,,,0.00,Weather View 32 v70,2013-11-13 06:30:00,
2013-11-13 01:35:00,24.0,15.3,30.11,SW,225,2.0,15.0,69,0.00,,,0.00,Weather View 32 v70,2013-11-13 06:35:00,
2013-11-13 01:43:00,24.0,15.3,30.11,WSW,248,3.0,15.0,69,0.00,,,0.00,Weather View 32 v70,2013-11-13 06:43:00,
2013-11-13 01:50:00,24.0,15.3,30.12,South,180,4.0,15.0,69,0.00,,,0.00,Weather View 32 v70,2013-11-13 06:50:00,
2013-11-13 01:55:00,24.0,15.3,30.12,South,180,1.0,15.0,69,0.00,,,0.00,Weather View 32 v70,2013-11-13 06:55:00,
2013-11-13 02:00:00,24.0,15.3,30.12,SE,135,7.0,15.0,69,0.00,,,0.00,Weather View 32 v70,2013-11-13 07:00:00,
2013-11-13 02:05:00,24.0,15.3,30.12,WSW,248,1.0,15.0,69,0.00,,,0.00,Weather View 32 v70,2013-11-13 07:05:00,
2013-11-13 02:14:00,24.0,15.0,30.12,WSW,248,2.0,14.0,68,0.00,,,0.00,Weather View 32 v70,2013-11-13 07:14:00,
2013-11-13 02:20:00,23.0,14.0,30.12,WSW,248,6.0,14.0,68,0.00,,,0.00,Weather View 32 v70,2013-11-13 07:20:00,
2013-11-13 02:30:00,23.0,14.0,30.12,WNW,292,4.0,14.0,68,0.00,,,0.00,Weather View 32 v70,2013-11-13 07:30:00,
2013-11-13 02:39:00,23.0,14.0,30.12,WNW,292,3.0,14.0,68,0.00,,,0.00,Weather View 32 v70,2013-11-13 07:39:00,
2013-11-13 02:45:00,23.0,14.0,30.12,WNW,292,3.0,14.0,68,0.00,,,0.00,Weather View 32 v70,2013-11-13 07:45:00,
2013-11-13 02:55:00,23.0,14.3,30.12,SW,225,3.0,14.0,69,0.00,,,0.00,Weather View 32 v70,2013-11-13 07:55:00,
2013-11-13 03:05:00,23.0,14.0,30.12,SSE,158,3.0,14.0,68,0.00,,,0.00,Weather View 32 v70,2013-11-13 08:05:00,
2013-11-13 03:10:00,23.0,13.7,30.13,South,180,3.0,14.0,67,0.00,,,0.00,Weather View 32 v70,2013-11-13 08:10:00,
2013-11-13 03:15:00,23.0,13.7,30.13,SE,135,2.0,14.0,67,0.00,,,0.00,Weather View 32 v70,2013-11-13 08:15:00,
2013-11-13 03:19:00,22.0,12.7,30.13,WNW,292,1.0,13.0,67,0.00,,,0.00,Weather View 32 v70,2013-11-13 08:19:00,
2013-11-13 03:24:00,22.0,12.4,30.12,SSW,202,5.0,13.0,66,0.00,,,0.00,Weather View 32 v70,2013-11-13 08:24:00,
2013-11-13 03:29:00,22.0,12.7,30.13,WSW,248,0.0,13.0,67,0.00,,,0.00,Weather View 32 v70,2013-11-13 08:29:00,
2013-11-13 03:34:00,22.0,12.7,30.13,WSW,248,3.0,13.0,67,0.00,,,0.00,Weather View 32 v70,2013-11-13 08:34:00,
2013-11-13 03:39:00,22.0,12.7,30.12,SSE,158,5.0,13.0,67,0.00,,,0.00,Weather View 32 v70,2013-11-13 08:39:00,
2013-11-13 03:45:00,22.0,12.7,30.12,West,270,8.0,13.0,67,0.00,,,0.00,Weather View 32 v70,2013-11-13 08:45:00,
2013-11-13 03:50:00,22.0,12.7,30.12,West,270,8.0,13.0,67,0.00,,,0.00,Weather View 32 v70,2013-11-13 08:50:00,
2013-11-13 03:55:00,22.0,12.4,30.12,South,180,7.0,13.0,66,0.00,,,0.00,Weather View 32 v70,2013-11-13 08:55:00,
2013-11-13 04:00:00,22.0,12.4,30.13,WSW,248,2.0,13.0,66,0.00,,,0.00,Weather View 32 v70,2013-11-13 09:00:00,
2013-11-13 04:05:00,22.0,12.7,30.13,West,270,5.0,13.0,67,0.00,,,0.00,Weather View 32 v70,2013-11-13 09:05:00,
2013-11-13 04:10:00,22.0,12.7,30.13,SSE,158,3.0,13.0,67,0.00,,,0.00,Weather View 32 v70,2013-11-13 09:10:00,
2013-11-13 04:14:00,22.0,12.7,30.13,South,180,3.0,13.0,67,0.00,,,0.00,Weather View 32 v70,2013-11-13 09:14:00,
2013-11-13 04:19:00,22.0,12.7,30.13,WSW,248,8.0,13.0,67,0.00,,,0.00,Weather View 32 v70,2013-11-13 09:19:00,
2013-11-13 04:24:00,22.0,12.4,30.13,WSW,248,6.0,13.0,66,0.00,,,0.00,Weather View 32 v70,2013-11-13 09:24:00,
2013-11-13 04:29:00,22.0,12.7,30.14,West,270,3.0,13.0,67,0.00,,,0.00,Weather View 32 v70,2013-11-13 09:29:00,
2013-11-13 04:34:00,21.0,11.8,30.14,West,270,3.0,13.0,67,0.00,,,0.00,Weather View 32 v70,2013-11-13 09:34:00,
2013-11-13 04:39:00,22.0,12.7,30.14,South,180,1.0,13.0,67,0.00,,,0.00,Weather View 32 v70,2013-11-13 09:39:00,
2013-11-13 04:45:00,21.0,12.1,30.14,West,270,3.0,13.0,68,0.00,,,0.00,Weather View 32 v70,2013-11-13 09:45:00,
2013-11-13 04:50:00,21.0,12.1,30.14,WNW,292,1.0,13.0,68,0.00,,,0.00,Weather View 32 v70,2013-11-13 09:50:00,
2013-11-13 04:55:00,21.0,12.1,30.14,SW,225,3.0,13.0,68,0.00,,,0.00,Weather View 32 v70,2013-11-13 09:55:00,
2013-11-13 05:00:00,21.0,12.4,30.14,SE,135,2.0,13.0,69,0.00,,,0.00,Weather View 32 v70,2013-11-13 10:00:00,
2013-11-13 05:10:00,21.0,12.8,30.14,SSW,202,3.0,13.0,70,0.00,,,0.00,Weather View 32 v70,2013-11-13 10:10:00,
2013-11-13 05:15:00,21.0,12.8,30.15,SSW,202,4.0,13.0,70,0.00,,,0.00,Weather View 32 v70,2013-11-13 10:15:00,
2013-11-13 05:19:00,21.0,12.8,30.15,West,270,1.0,13.0,70,0.00,,,0.00,Weather View 32 v70,2013-11-13 10:19:00,
2013-11-13 05:24:00,21.0,13.1,30.15,SE,135,1.0,13.0,71,0.00,,,0.00,Weather View 32 v70,2013-11-13 10:24:00,
2013-11-13 05:30:00,21.0,13.1,30.15,SE,135,3.0,13.0,71,0.00,,,0.00,Weather View 32 v70,2013-11-13 10:30:00,
2013-11-13 05:34:00,21.0,13.7,30.15,SE,135,1.0,13.0,73,0.00,,,0.00,Weather View 32 v70,2013-11-13 10:34:00,
2013-11-13 05:39:00,21.0,13.7,30.15,SSW,202,1.0,13.0,73,0.00,,,0.00,Weather View 32 v70,2013-11-13 10:39:00,
2013-11-13 05:45:00,21.0,13.4,30.15,SE,135,2.0,13.0,72,0.00,,,0.00,Weather View 32 v70,2013-11-13 10:45:00,
2013-11-13 05:54:00,20.0,12.4,30.15,South,180,3.0,13.0,72,0.00,,,0.00,Weather View 32 v70,2013-11-13 10:54:00,
2013-11-13 06:00:00,20.0,12.1,30.16,West,270,2.0,8.0,71,0.00,,,0.00,Weather View 32 v70,2013-11-13 11:00:00,
2013-11-13 06:05:00,20.0,12.1,30.16,SE,135,3.0,11.0,71,0.00,,,0.00,Weather View 32 v70,2013-11-13 11:05:00,
2013-11-13 06:10:00,20.0,12.4,30.16,SSE,158,6.0,11.0,72,0.00,,,0.00,Weather View 32 v70,2013-11-13 11:10:00,
2013-11-13 06:20:00,20.0,12.1,30.17,WNW,292,10.0,13.0,71,0.00,,,0.00,Weather View 32 v70,2013-11-13 11:20:00,
2013-11-13 06:25:00,20.0,12.1,30.17,WNW,292,6.0,14.0,71,0.00,,,0.00,Weather View 32 v70,2013-11-13 11:25:00,
2013-11-13 06:34:00,20.0,11.8,30.17,WNW,292,13.0,16.0,70,0.00,,,0.00,Weather View 32 v70,2013-11-13 11:34:00,
2013-11-13 06:40:00,20.0,11.8,30.17,West,270,11.0,16.0,70,0.00,,,0.00,Weather View 32 v70,2013-11-13 11:40:00,
2013-11-13 06:45:00,20.0,11.8,30.17,WNW,292,8.0,18.0,70,0.00,,,0.00,Weather View 32 v70,2013-11-13 11:45:00,
2013-11-13 06:55:00,20.0,12.1,30.18,WNW,292,10.0,18.0,71,0.00,,,0.00,Weather View 32 v70,2013-11-13 11:55:00,
2013-11-13 07:00:00,20.0,11.8,30.18,WNW,292,4.0,18.0,70,0.00,,,0.00,Weather View 32 v70,2013-11-13 12:00:00,
2013-11-13 07:05:00,20.0,11.8,30.19,WSW,248,5.0,18.0,70,0.00,,,0.00,Weather View 32 v70,2013-11-13 12:05:00,
2013-11-13 07:15:00,20.0,12.1,30.19,WSW,248,3.0,18.0,71,0.00,,,0.00,Weather View 32 v70,2013-11-13 12:15:00,
2013-11-13 07:20:00,20.0,12.1,30.18,SW,225,3.0,18.0,71,0.00,,,0.00,Weather View 32 v70,2013-11-13 12:20:00,
2013-11-13 07:25:00,20.0,11.8,30.19,West,270,3.0,18.0,70,0.00,,,0.00,Weather View 32 v70,2013-11-13 12:25:00,
2013-11-13 07:35:00,21.0,12.8,30.20,SSE,158,3.0,18.0,70,0.00,,,0.00,Weather View 32 v70,2013-11-13 12:35:00,
2013-11-13 07:40:00,21.0,12.8,30.20,SSE,158,1.0,18.0,70,0.00,,,0.00,Weather View 32 v70,2013-11-13 12:40:00,
2013-11-13 07:45:00,21.0,13.1,30.20,SSW,202,4.0,16.0,71,0.00,,,0.00,Weather View 32 v70,2013-11-13 12:45:00,
2013-11-13 07:55:00,21.0,12.4,30.20,WSW,248,4.0,15.0,69,0.00,,,0.00,Weather View 32 v70,2013-11-13 12:55:00,
2013-11-13 08:00:00,21.0,12.1,30.20,West,270,1.0,15.0,68,0.00,,,0.00,Weather View 32 v70,2013-11-13 13:00:00,
2013-11-13 08:05:00,22.0,13.1,30.21,SE,135,1.0,15.0,68,0.00,,,0.00,Weather View 32 v70,2013-11-13 13:05:00,
2013-11-13 08:15:00,22.0,12.7,30.20,West,270,3.0,12.0,67,0.00,,,0.00,Weather View 32 v70,2013-11-13 13:15:00,
2013-11-13 08:20:00,22.0,13.1,30.20,West,270,5.0,12.0,68,0.00,,,0.00,Weather View 32 v70,2013-11-13 13:20:00,
2013-11-13 08:25:00,22.0,12.7,30.20,WNW,292,2.0,12.0,67,0.00,,,0.00,Weather View 32 v70,2013-11-13 13:25:00,
2013-11-13 08:30:00,22.0,12.7,30.20,WNW,292,4.0,12.0,67,0.00,,,0.00,Weather View 32 v70,2013-11-13 13:30:00,
2013-11-13 08:35:00,22.0,12.4,30.20,SSW,202,4.0,12.0,66,0.00,,,0.00,Weather View 32 v70,2013-11-13 13:35:00,
2013-11-13 08:45:00,23.0,13.0,30.21,South,180,4.0,12.0,65,0.00,,,0.00,Weather View 32 v70,2013-11-13 13:45:00,
2013-11-13 08:54:00,23.0,13.0,30.21,West,270,2.0,12.0,65,0.00,,,0.00,Weather View 32 v70,2013-11-13 13:54:00,
2013-11-13 09:00:00,23.0,13.0,30.21,WSW,248,3.0,12.0,65,0.00,,,0.00,Weather View 32 v70,2013-11-13 14:00:00,
2013-11-13 09:05:00,23.0,13.0,30.21,West,270,2.0,12.0,65,0.00,,,0.00,Weather View 32 v70,2013-11-13 14:05:00,
2013-11-13 09:10:00,23.0,13.0,30.21,SSW,202,2.0,12.0,65,0.00,,,0.00,Weather View 32 v70,2013-11-13 14:10:00,
2013-11-13 09:15:00,24.0,13.6,30.21,SSE,158,3.0,12.0,64,0.00,,,0.00,Weather View 32 v70,2013-11-13 14:15:00,
2013-11-13 09:20:00,24.0,13.6,30.21,SE,135,2.0,13.0,64,0.00,,,0.00,Weather View 32 v70,2013-11-13 14:20:00,
2013-11-13 09:25:00,24.0,13.6,30.21,SE,135,1.0,13.0,64,0.00,,,0.00,Weather View 32 v70,2013-11-13 14:25:00,
2013-11-13 09:30:00,24.0,13.2,30.21,SE,135,1.0,13.0,63,0.00,,,0.00,Weather View 32 v70,2013-11-13 14:30:00,
2013-11-13 09:39:00,24.0,13.2,30.21,South,180,5.0,13.0,63,0.00,,,0.00,Weather View 32 v70,2013-11-13 14:39:00,
2013-11-13 09:45:00,25.0,13.8,30.21,West,270,0.0,13.0,62,0.00,,,0.00,Weather View 32 v70,2013-11-13 14:45:00,
2013-11-13 09:49:00,25.0,13.8,30.21,South,180,4.0,13.0,62,0.00,,,0.00,Weather View 32 v70,2013-11-13 14:49:00,
2013-11-13 09:55:00,25.0,13.4,30.21,SW,225,3.0,13.0,61,0.00,,,0.00,Weather View 32 v70,2013-11-13 14:55:00,
2013-11-13 10:00:00,25.0,13.4,30.21,South,180,3.0,13.0,61,0.00,,,0.00,Weather View 32 v70,2013-11-13 15:00:00,
2013-11-13 10:05:00,25.0,13.8,30.22,SSW,202,7.0,13.0,62,0.00,,,0.00,Weather View 32 v70,2013-11-13 15:05:00,
2013-11-13 10:10:00,25.0,13.8,30.22,West,270,1.0,13.0,62,0.00,,,0.00,Weather View 32 v70,2013-11-13 15:10:00,
2013-11-13 10:15:00,25.0,13.1,30.22,SE,135,4.0,13.0,60,0.00,,,0.00,Weather View 32 v70,2013-11-13 15:15:00,
2013-11-13 10:20:00,25.0,13.4,30.22,South,180,2.0,12.0,61,0.00,,,0.00,Weather View 32 v70,2013-11-13 15:20:00,
2013-11-13 10:25:00,25.0,13.1,30.21,SSW,202,3.0,12.0,60,0.00,,,0.00,Weather View 32 v70,2013-11-13 15:25:00,
2013-11-13 10:35:00,25.0,13.1,30.22,WNW,292,3.0,12.0,60,0.00,,,0.00,Weather View 32 v70,2013-11-13 15:35:00,
2013-11-13 10:40:00,26.0,14.4,30.22,South,180,1.0,12.0,61,0.00,,,0.00,Weather View 32 v70,2013-11-13 15:40:00,
2013-11-13 10:45:00,26.0,14.0,30.21,SW,225,4.0,11.0,60,0.00,,,0.00,Weather View 32 v70,2013-11-13 15:45:00,
2013-11-13 10:55:00,27.0,15.3,30.20,West,270,2.0,11.0,61,0.00,,,0.00,Weather View 32 v70,2013-11-13 15:55:00,
2013-11-13 11:00:00,27.0,14.6,30.21,West,270,3.0,10.0,59,0.00,,,0.00,Weather View 32 v70,2013-11-13 16:00:00,
2013-11-13 11:09:00,27.0,14.2,30.20,SW,225,3.0,10.0,58,0.00,,,0.00,Weather View 32 v70,2013-11-13 16:09:00,
2013-11-13 11:14:00,27.0,14.2,30.21,WNW,292,2.0,10.0,58,0.00,,,0.00,Weather View 32 v70,2013-11-13 16:14:00,
2013-11-13 11:20:00,26.0,12.8,30.20,SE,135,4.0,14.0,57,0.00,,,0.00,Weather View 32 v70,2013-11-13 16:20:00,
2013-11-13 11:25:00,27.0,14.2,30.20,SE,135,5.0,14.0,58,0.00,,,0.00,Weather View 32 v70,2013-11-13 16:25:00,
2013-11-13 11:30:00,27.0,14.6,30.20,WSW,248,1.0,14.0,59,0.00,,,0.00,Weather View 32 v70,2013-11-13 16:30:00,
2013-11-13 11:40:00,27.0,13.4,30.19,WSW,248,2.0,14.0,56,0.00,,,0.00,Weather View 32 v70,2013-11-13 16:40:00,
2013-11-13 11:45:00,28.0,14.3,30.18,West,270,3.0,14.0,56,0.00,,,0.00,Weather View 32 v70,2013-11-13 16:45:00,
2013-11-13 11:50:00,28.0,14.3,30.19,WSW,248,3.0,14.0,56,0.00,,,0.00,Weather View 32 v70,2013-11-13 16:50:00,
2013-11-13 11:55:00,28.0,14.3,30.18,West,270,3.0,14.0,56,0.00,,,0.00,Weather View 32 v70,2013-11-13 16:55:00,
2013-11-13 12:00:00,28.0,14.3,30.19,SSW,202,3.0,14.0,56,0.00,,,0.00,Weather View 32 v70,2013-11-13 17:00:00,
2013-11-13 12:09:00,28.0,14.3,30.18,SSE,158,6.0,14.0,56,0.00,,,0.00,Weather View 32 v70,2013-11-13 17:09:00,
2013-11-13 12:15:00,28.0,13.5,30.18,WNW,292,2.0,14.0,54,0.00,,,0.00,Weather View 32 v70,2013-11-13 17:15:00,
2013-11-13 12:20:00,29.0,14.8,30.18,SSW,202,3.0,11.0,55,0.00,,,0.00,Weather View 32 v70,2013-11-13 17:20:00,
2013-11-13 12:25:00,29.0,14.8,30.18,West,270,1.0,11.0,55,0.00,,,0.00,Weather View 32 v70,2013-11-13 17:25:00,
2013-11-13 12:30:00,29.0,14.8,30.17,South,180,3.0,11.0,55,0.00,,,0.00,Weather View 32 v70,2013-11-13 17:30:00,
2013-11-13 12:35:00,29.0,14.4,30.17,SW,225,3.0,10.0,54,0.00,,,0.00,Weather View 32 v70,2013-11-13 17:35:00,
2013-11-13 12:40:00,29.0,14.4,30.17,WNW,292,3.0,10.0,54,0.00,,,0.00,Weather View 32 v70,2013-11-13 17:40:00,
2013-11-13 12:49:00,29.0,14.8,30.17,WSW,248,1.0,8.0,55,0.00,,,0.00,Weather View 32 v70,2013-11-13 17:49:00,
2013-11-13 12:54:00,29.0,14.0,30.16,SW,225,2.0,11.0,53,0.00,,,0.00,Weather View 32 v70,2013-11-13 17:54:00,
2013-11-13 12:59:00,29.0,14.0,30.16,SW,225,10.0,12.0,53,0.00,,,0.00,Weather View 32 v70,2013-11-13 17:59:00,
2013-11-13 13:05:00,29.0,13.6,30.16,WSW,248,1.0,12.0,52,0.00,,,0.00,Weather View 32 v70,2013-11-13 18:05:00,
2013-11-13 13:10:00,29.0,13.6,30.16,West,270,3.0,12.0,52,0.00,,,0.00,Weather View 32 v70,2013-11-13 18:10:00,
2013-11-13 13:15:00,29.0,13.1,30.16,West,270,2.0,12.0,51,0.00,,,0.00,Weather View 32 v70,2013-11-13 18:15:00,
2013-11-13 13:20:00,29.0,12.2,30.15,South,180,7.0,12.0,49,0.00,,,0.00,Weather View 32 v70,2013-11-13 18:20:00,
2013-11-13 13:25:00,29.0,12.7,30.15,WNW,292,3.0,12.0,50,0.00,,,0.00,Weather View 32 v70,2013-11-13 18:25:00,
2013-11-13 13:30:00,30.0,13.6,30.15,WSW,248,1.0,12.0,50,0.00,,,0.00,Weather View 32 v70,2013-11-13 18:30:00,
2013-11-13 13:35:00,29.0,12.2,30.15,WSW,248,3.0,12.0,49,0.00,,,0.00,Weather View 32 v70,2013-11-13 18:35:00,
2013-11-13 13:45:00,29.0,12.2,30.15,SSW,202,1.0,12.0,49,0.00,,,0.00,Weather View 32 v70,2013-11-13 18:45:00,
2013-11-13 13:55:00,29.0,12.2,30.15,SSE,158,4.0,12.0,49,0.00,,,0.00,Weather View 32 v70,2013-11-13 18:55:00,
2013-11-13 14:00:00,29.0,12.2,30.15,SE,135,2.0,13.0,49,0.00,,,0.00,Weather View 32 v70,2013-11-13 19:00:00,
2013-11-13 14:05:00,30.0,13.1,30.15,SW,225,3.0,13.0,49,0.00,,,0.00,Weather View 32 v70,2013-11-13 19:05:00,
2013-11-13 14:10:00,30.0,13.1,30.15,West,270,5.0,13.0,49,0.00,,,0.00,Weather View 32 v70,2013-11-13 19:10:00,
2013-11-13 14:15:00,30.0,13.1,30.15,SSW,202,3.0,14.0,49,0.00,,,0.00,Weather View 32 v70,2013-11-13 19:15:00,
2013-11-13 14:25:00,30.0,13.1,30.15,SW,225,3.0,14.0,49,0.00,,,0.00,Weather View 32 v70,2013-11-13 19:25:00,
2013-11-13 14:30:00,29.0,12.2,30.15,West,270,6.0,14.0,49,0.00,,,0.00,Weather View 32 v70,2013-11-13 19:30:00,
2013-11-13 14:39:00,29.0,12.2,30.15,SW,225,3.0,14.0,49,0.00,,,0.00,Weather View 32 v70,2013-11-13 19:39:00,
2013-11-13 14:45:00,29.0,11.8,30.15,SSE,158,6.0,14.0,48,0.00,,,0.00,Weather View 32 v70,2013-11-13 19:45:00,
2013-11-13 14:50:00,29.0,12.2,30.15,SSW,202,2.0,14.0,49,0.00,,,0.00,Weather View 32 v70,2013-11-13 19:50:00,
2013-11-13 15:00:00,29.0,11.8,30.15,WNW,292,4.0,14.0,48,0.00,,,0.00,Weather View 32 v70,2013-11-13 20:00:00,
2013-11-13 15:10:00,29.0,11.3,30.15,South,180,2.0,14.0,47,0.00,,,0.00,Weather View 32 v70,2013-11-13 20:10:00,
2013-11-13 15:20:00,29.0,11.8,30.15,SW,225,2.0,14.0,48,0.00,,,0.00,Weather View 32 v70,2013-11-13 20:20:00,
2013-11-13 15:30:00,28.0,11.3,30.14,SW,225,2.0,14.0,49,0.00,,,0.00,Weather View 32 v70,2013-11-13 20:30:00,
2013-11-13 15:34:00,28.0,11.3,30.14,SSE,158,8.0,14.0,49,0.00,,,0.00,Weather View 32 v70,2013-11-13 20:34:00,
2013-11-13 15:45:00,28.0,11.7,30.14,SW,225,2.0,14.0,50,0.00,,,0.00,Weather View 32 v70,2013-11-13 20:45:00,
2013-11-13 15:51:00,28.0,12.2,30.15,South,180,2.0,14.0,51,0.00,,,0.00,Weather View 32 v70,2013-11-13 20:51:00,
2013-11-13 16:00:00,28.0,11.7,30.15,WNW,292,4.0,14.0,50,0.00,,,0.00,Weather View 32 v70,2013-11-13 21:00:00,
2013-11-13 16:05:00,28.0,12.2,30.15,WSW,248,2.0,14.0,51,0.00,,,0.00,Weather View 32 v70,2013-11-13 21:05:00,
2013-11-13 16:14:00,28.0,12.2,30.15,WSW,248,1.0,13.0,51,0.00,,,0.00,Weather View 32 v70,2013-11-13 21:14:00,
2013-11-13 16:20:00,28.0,12.2,30.14,SSE,158,6.0,13.0,51,0.00,,,0.00,Weather View 32 v70,2013-11-13 21:20:00,
2013-11-13 16:30:00,28.0,12.2,30.15,SW,225,1.0,11.0,51,0.00,,,0.00,Weather View 32 v70,2013-11-13 21:30:00,
2013-11-13 16:35:00,28.0,12.6,30.15,SSW,202,1.0,11.0,52,0.00,,,0.00,Weather View 32 v70,2013-11-13 21:35:00,
2013-11-13 16:40:00,27.0,11.3,30.15,South,180,5.0,11.0,51,0.00,,,0.00,Weather View 32 v70,2013-11-13 21:40:00,
2013-11-13 16:45:00,27.0,11.7,30.15,West,270,1.0,11.0,52,0.00,,,0.00,Weather View 32 v70,2013-11-13 21:45:00,
2013-11-13 16:51:00,27.0,11.7,30.14,South,180,3.0,11.0,52,0.00,,,0.00,Weather View 32 v70,2013-11-13 21:51:00,
2013-11-13 17:00:00,27.0,12.1,30.16,South,180,1.0,7.0,53,0.00,,,0.00,Weather View 32 v70,2013-11-13 22:00:00,
2013-11-13 17:09:00,27.0,12.6,30.16,SSW,202,1.0,7.0,54,0.00,,,0.00,Weather View 32 v70,2013-11-13 22:09:00,
2013-11-13 17:15:00,27.0,12.1,30.17,SSW,202,0.0,7.0,53,0.00,,,0.00,Weather View 32 v70,2013-11-13 22:15:00,
2013-11-13 17:20:00,27.0,13.0,30.16,SSW,202,1.0,6.0,55,0.00,,,0.00,Weather View 32 v70,2013-11-13 22:20:00,
2013-11-13 17:25:00,27.0,13.4,30.16,WSW,248,0.0,6.0,56,0.00,,,0.00,Weather View 32 v70,2013-11-13 22:25:00,
2013-11-13 17:35:00,27.0,13.0,30.16,South,180,1.0,6.0,55,0.00,,,0.00,Weather View 32 v70,2013-11-13 22:35:00,
2013-11-13 17:39:00,27.0,13.0,30.15,SSW,202,0.0,6.0,55,0.00,,,0.00,Weather View 32 v70,2013-11-13 22:39:00,
2013-11-13 17:50:00,27.0,12.6,30.15,SSE,158,1.0,6.0,54,0.00,,,0.00,Weather View 32 v70,2013-11-13 22:50:00,
2013-11-13 17:59:00,27.0,12.6,30.15,SSE,158,2.0,6.0,54,0.00,,,0.00,Weather View 32 v70,2013-11-13 22:59:00,
2013-11-13 18:05:00,27.0,12.6,30.15,South,180,2.0,6.0,54,0.00,,,0.00,Weather View 32 v70,2013-11-13 23:05:00,
2013-11-13 18:15:00,27.0,12.6,30.15,South,180,3.0,6.0,54,0.00,,,0.00,Weather View 32 v70,2013-11-13 23:15:00,
2013-11-13 18:20:00,27.0,13.0,30.15,South,180,2.0,8.0,55,0.00,,,0.00,Weather View 32 v70,2013-11-13 23:20:00,
2013-11-13 18:30:00,27.0,13.0,30.15,South,180,5.0,8.0,55,0.00,,,0.00,Weather View 32 v70,2013-11-13 23:30:00,
2013-11-13 18:40:00,28.0,14.3,30.14,WSW,248,0.0,8.0,56,0.00,,,0.00,Weather View 32 v70,2013-11-13 23:40:00,
2013-11-13 18:49:00,27.0,13.4,30.14,WNW,292,0.0,8.0,56,0.00,,,0.00,Weather View 32 v70,2013-11-13 23:49:00,
2013-11-13 18:55:00,27.0,13.0,30.14,SE,135,1.0,8.0,55,0.00,,,0.00,Weather View 32 v70,2013-11-13 23:55:00,
2013-11-13 19:00:00,26.0,13.2,30.14,West,270,1.0,8.0,58,0.00,,,0.00,Weather View 32 v70,2013-11-14 00:00:00,
2013-11-13 19:09:00,27.0,13.4,30.14,SSE,158,3.0,8.0,56,0.00,,,0.00,Weather View 32 v70,2013-11-14 00:09:00,
2013-11-13 19:15:00,27.0,13.8,30.14,South,180,3.0,8.0,57,0.00,,,0.00,Weather View 32 v70,2013-11-14 00:15:00,
2013-11-13 19:20:00,27.0,13.4,30.14,WNW,292,0.0,8.0,56,0.00,,,0.00,Weather View 32 v70,2013-11-14 00:20:00,
2013-11-13 19:30:00,27.0,13.4,30.14,SE,135,1.0,8.0,56,0.00,,,0.00,Weather View 32 v70,2013-11-14 00:30:00,
2013-11-13 19:34:00,27.0,13.4,30.14,South,180,0.0,8.0,56,0.00,,,0.00,Weather View 32 v70,2013-11-14 00:34:00,
2013-11-13 19:40:00,27.0,13.4,30.13,SE,135,0.0,8.0,56,0.00,,,0.00,Weather View 32 v70,2013-11-14 00:40:00,
2013-11-13 19:50:00,28.0,14.7,30.13,WSW,248,2.0,8.0,57,0.00,,,0.00,Weather View 32 v70,2013-11-14 00:50:00,
2013-11-13 20:00:00,28.0,15.1,30.14,SE,135,4.0,8.0,58,0.00,,,0.00,Weather View 32 v70,2013-11-14 01:00:00,
2013-11-13 20:10:00,28.0,13.5,30.13,SW,225,0.0,9.0,54,0.00,,,0.00,Weather View 32 v70,2013-11-14 01:10:00,
2013-11-13 20:19:00,28.0,14.7,30.13,SSE,158,5.0,10.0,57,0.00,,,0.00,Weather View 32 v70,2013-11-14 01:19:00,
2013-11-13 20:25:00,28.0,15.1,30.13,South,180,4.0,10.0,58,0.00,,,0.00,Weather View 32 v70,2013-11-14 01:25:00,
2013-11-13 20:35:00,29.0,16.1,30.13,West,270,1.0,10.0,58,0.00,,,0.00,Weather View 32 v70,2013-11-14 01:35:00,
2013-11-13 20:40:00,29.0,16.1,30.13,SW,225,2.0,10.0,58,0.00,,,0.00,Weather View 32 v70,2013-11-14 01:40:00,
2013-11-13 20:49:00,29.0,16.5,30.13,South,180,1.0,10.0,59,0.00,,,0.00,Weather View 32 v70,2013-11-14 01:49:00,
2013-11-13 20:55:00,29.0,16.8,30.12,WSW,248,5.0,10.0,60,0.00,,,0.00,Weather View 32 v70,2013-11-14 01:55:00,
2013-11-13 21:05:00,29.0,16.8,30.13,West,270,3.0,10.0,60,0.00,,,0.00,Weather View 32 v70,2013-11-14 02:05:00,
2013-11-13 21:15:00,29.0,16.5,30.12,WNW,292,1.0,10.0,59,0.00,,,0.00,Weather View 32 v70,2013-11-14 02:15:00,
2013-11-13 21:24:00,29.0,17.2,30.12,SW,225,1.0,9.0,61,0.00,,,0.00,Weather View 32 v70,2013-11-14 02:24:00,
2013-11-13 21:30:00,29.0,17.6,30.11,South,180,5.0,8.0,62,0.00,,,0.00,Weather View 32 v70,2013-11-14 02:30:00,
2013-11-13 21:35:00,28.0,16.7,30.12,SE,135,4.0,8.0,62,0.00,,,0.00,Weather View 32 v70,2013-11-14 02:35:00,
2013-11-13 21:45:00,28.0,16.3,30.11,South,180,3.0,9.0,61,0.00,,,0.00,Weather View 32 v70,2013-11-14 02:45:00,
2013-11-13 21:50:00,27.0,16.1,30.11,South,180,6.0,9.0,63,0.00,,,0.00,Weather View 32 v70,2013-11-14 02:50:00,
2013-11-13 21:55:00,28.0,17.4,30.11,South,180,6.0,9.0,64,0.00,,,0.00,Weather View 32 v70,2013-11-14 02:55:00,
2013-11-13 22:05:00,27.0,15.7,30.10,SSW,202,3.0,9.0,62,0.00,,,0.00,Weather View 32 v70,2013-11-14 03:05:00,
2013-11-13 22:10:00,27.0,16.1,30.10,South,180,3.0,10.0,63,0.00,,,0.00,Weather View 32 v70,2013-11-14 03:10:00,
2013-11-13 22:15:00,27.0,16.1,30.10,SSW,202,1.0,10.0,63,0.00,,,0.00,Weather View 32 v70,2013-11-14 03:15:00,
2013-11-13 22:25:00,27.0,16.8,30.10,SSW,202,3.0,10.0,65,0.00,,,0.00,Weather View 32 v70,2013-11-14 03:25:00,
2013-11-13 22:34:00,27.0,17.5,30.10,South,180,5.0,10.0,67,0.00,,,0.00,Weather View 32 v70,2013-11-14 03:34:00,
2013-11-13 22:39:00,27.0,17.2,30.09,South,180,7.0,10.0,66,0.00,,,0.00,Weather View 32 v70,2013-11-14 03:39:00,
2013-11-13 22:45:00,27.0,17.2,30.10,South,180,6.0,10.0,66,0.00,,,0.00,Weather View 32 v70,2013-11-14 03:45:00,
2013-11-13 22:50:00,27.0,17.2,30.09,South,180,4.0,10.0,66,0.00,,,0.00,Weather View 32 v70,2013-11-14 03:50:00,
2013-11-13 22:55:00,27.0,16.8,30.09,SW,225,1.0,10.0,65,0.00,,,0.00,Weather View 32 v70,2013-11-14 03:55:00,
2013-11-13 23:05:00,26.0,15.8,30.08,South,180,1.0,10.0,65,0.00,,,0.00,Weather View 32 v70,2013-11-14 04:05:00,
2013-11-13 23:14:00,27.0,17.8,30.08,SE,135,4.0,10.0,68,0.00,,,0.00,Weather View 32 v70,2013-11-14 04:14:00,
2013-11-13 23:25:00,27.0,17.8,30.07,WSW,248,1.0,10.0,68,0.00,,,0.00,Weather View 32 v70,2013-11-14 04:25:00,
2013-11-13 23:30:00,27.0,17.8,30.08,SSW,202,1.0,10.0,68,0.00,,,0.00,Weather View 32 v70,2013-11-14 04:30:00,
2013-11-13 23:41:00,26.0,16.2,30.08,SSW,202,2.0,10.0,66,0.00,,,0.00,Weather View 32 v70,2013-11-14 04:41:00,
2013-11-13 23:50:00,26.0,17.2,30.06,WNW,292,3.0,7.0,69,0.00,,,0.00,Weather View 32 v70,2013-11-14 04:50:00,
2013-11-13 23:55:00,26.0,16.9,30.06,WNW,292,1.0,7.0,68,0.00,,,0.00,Weather View 32 v70,2013-11-14 04:55:00,